Weather History for Hailey, ID

Change the Weather History Date:

Tuesday, November 15, 2011

  Actual Average Record
Temperature  
Mean Temperature 30 °F -  
Max Temperature 39 °F 42 °F 60 °F (1999)
Min Temperature 21 °F 23 °F 5 °F (2014)
Degree Days  
Heating Degree Days 35    
Moisture  
Dew Point 16 °F    
Average Humidity 58    
Maximum Humidity 74    
Minimum Humidity 28    
Precipitation  
Precipitation 0.00 in - - ()
Sea Level Pressure  
Sea Level Pressure 29.98 in    
Wind  
Wind Speed 5 mph (NW)    
Max Wind Speed 14 mph    
Max Gust Speed 22 mph    
Visibility 9 miles    
Events      
Averages and records for this station are not official NWS values.
T = Trace of Precipitation, MM = Missing Value Source: NWS Daily Summary

Daily Weather History Graph

Daily Weather History Graph

Search for Another Location

Airport:

Trip Planner

Search our weather history database for the weather conditions in past years. The results will help you decide how hot, cold, wet, or windy it might be!

Date:

Astronomy

Nov. 15, 2011 Rise Set
Actual Time 7:30 AM MST 5:12 PM MST
Civil Twilight 6:59 AM MST 5:43 PM MST
Nautical Twilight 6:25 AM MST 6:17 PM MST
Astronomical Twilight 5:51 AM MST 6:51 PM MST
Moon 9:25 PM MST (11/15) 11:33 AM MST (11/15)
Length of Visible Light 10h 43m
Length of Day
9h 41m
Waning Gibbous, 78% of the Moon is Illuminated
Nov 15
Waning Gibbous
Nov 18
Last Quarter
Nov 24
New
Dec 2
First Quarter
Dec 10
Full

Hourly Weather History & Observations

Time (MST) Temp. Windchill Dew Point Humidity Pressure Visibility Wind Dir Wind Speed Gust Speed Precip Events Conditions
12:15 AM 30.2 °F 26.7 °F 21.2 °F 69% 29.84 in 10.0 mi NNW 3.5 mph - N/A   Scattered Clouds
12:35 AM 32.0 °F - 21.2 °F 64% 29.85 in 10.0 mi Calm Calm - N/A   Clear
12:55 AM 30.2 °F - 21.2 °F 69% 29.85 in 10.0 mi Calm Calm - N/A   Clear
1:55 AM 32.0 °F 22.1 °F 21.2 °F 64% 29.85 in 10.0 mi North 13.8 mph 19.6 mph N/A   Clear
2:15 AM 32.0 °F 23.6 °F 21.2 °F 64% 29.85 in 10.0 mi North 10.4 mph 16.1 mph N/A   Clear
2:35 AM 32.0 °F 27.5 °F 21.2 °F 64% 29.87 in 10.0 mi West 4.6 mph - N/A   Clear
2:55 AM 32.0 °F 26.4 °F 21.2 °F 64% 29.87 in 10.0 mi NW 5.8 mph - N/A   Clear
3:15 AM 32.0 °F 27.5 °F 21.2 °F 64% 29.88 in 10.0 mi NNW 4.6 mph - N/A   Clear
3:35 AM 32.0 °F - 21.2 °F 64% 29.89 in 10.0 mi Calm Calm - N/A   Clear
3:55 AM 30.2 °F - 19.4 °F 64% 29.89 in 10.0 mi Calm Calm - N/A   Clear
4:15 AM 30.2 °F 25.4 °F 19.4 °F 64% 29.89 in 10.0 mi NW 4.6 mph - N/A   Clear
4:35 AM 26.6 °F 22.6 °F 19.4 °F 74% 29.89 in 10.0 mi North 3.5 mph - N/A   Clear
4:55 AM 28.4 °F 22.2 °F 19.4 °F 69% 29.90 in 10.0 mi NW 5.8 mph - N/A   Clear
6:47 AM 24.8 °F - 17.6 °F 74% 29.94 in 7.0 mi Calm Calm - N/A   Partly Cloudy
8:50 AM 24.8 °F 16.9 °F 15.8 °F 69% 29.99 in 7.0 mi WNW 6.9 mph - N/A   Partly Cloudy
9:47 AM 28.4 °F 23.3 °F 17.6 °F 64% 30.00 in 7.0 mi NW 4.6 mph - N/A   Clear
10:47 AM 35.6 °F - 17.6 °F 48% 30.00 in 7.0 mi Calm Calm - N/A   Clear
11:47 AM 37.4 °F 30.8 °F 12.2 °F 36% 29.99 in 7.0 mi SW 9.2 mph - N/A   Clear
12:47 PM 37.4 °F 29.8 °F 14.0 °F 38% 29.97 in 7.0 mi SW 11.5 mph 18.4 mph N/A   Clear
1:50 PM 37.4 °F 29.8 °F 15.8 °F 41% 29.96 in 7.0 mi SW 11.5 mph 21.9 mph N/A   Clear
2:47 PM 39.2 °F 32.5 °F 10.4 °F 31% 29.97 in 7.0 mi WSW 10.4 mph 20.7 mph N/A   Clear
3:47 PM 39.2 °F 31.6 °F 8.6 °F 28% 29.98 in 7.0 mi WSW 12.7 mph 20.7 mph N/A   Clear
4:50 PM 35.6 °F 27.5 °F 10.4 °F 35% 30.00 in 7.0 mi WSW 11.5 mph 17.3 mph N/A   Clear
5:50 PM 33.8 °F 26.4 °F 10.4 °F 38% 30.01 in 7.0 mi West 9.2 mph - N/A   Clear
6:47 PM 28.4 °F - 12.2 °F 51% 30.04 in 7.0 mi Calm Calm - N/A   Clear
7:47 PM 28.4 °F - 12.2 °F 51% 30.07 in 7.0 mi Calm Calm - N/A   Clear
8:47 PM 24.8 °F 19.1 °F 12.2 °F 59% 30.09 in 7.0 mi North 4.6 mph - N/A   Clear
9:47 PM 23.0 °F - 12.2 °F 63% 30.12 in 7.0 mi Calm Calm - N/A   Clear
10:15 PM 23.0 °F 15.8 °F 12.2 °F 63% 30.13 in 10.0 mi NNW 5.8 mph - N/A   Clear
10:35 PM 21.2 °F 14.9 °F 12.2 °F 68% 30.13 in 10.0 mi NW 4.6 mph - N/A   Clear
10:47 PM 21.2 °F 14.9 °F 10.4 °F 63% 30.14 in 7.0 mi West 4.6 mph - N/A   Clear
10:55 PM 23.0 °F 18.4 °F 12.2 °F 63% 30.14 in 10.0 mi North 3.5 mph - N/A   Clear
11:15 PM 21.2 °F 16.4 °F 12.2 °F 68% 30.14 in 10.0 mi NNW 3.5 mph - N/A   Clear
11:35 PM 21.2 °F 16.4 °F 12.2 °F 68% 30.15 in 10.0 mi NW 3.5 mph - N/A   Clear
11:55 PM 23.0 °F 14.7 °F 10.4 °F 59% 30.15 in 10.0 mi WNW 6.9 mph - N/A   Clear